[Iaude] MPEC U141: 2014 VT37 [a=39.78,e=0.24,i=33.3,H=9.11]

mpec at marsden.cfa.harvard.edu mpec at marsden.cfa.harvard.edu
Fri Oct 20 11:19:22 EDT 2023


M.P.E.C. 2023-U141                             Issued 2023 October 20, 15:17 UT

     The Minor Planet Electronic Circulars contain information on unusual
         minor planets, routine data on comets and natural satellites,
         and occasional editorial announcements.  They are published
    on behalf of Division F of the International Astronomical Union by the
          Minor Planet Center, Smithsonian Astrophysical Observatory,
                          Cambridge, MA 02138, U.S.A.
			  
             Prepared using the Tamkin Foundation Computer Network

                              MPC at CFA.HARVARD.EDU
            URL https://www.minorplanetcenter.net/    ISSN 1523-6714

                                   2014 VT37                                    


Additional Observations:
     K14V37T !C2013 11 05.11839 02 44 33.91 +01 07 53.4          24.1 r EU141W84
     K14V37T !C2013 11 05.21186 02 44 33.33 +01 07 49.6                 EU141W84
     K14V37T !C2013 11 05.26761 02 44 32.98 +01 07 47.4                 EU141W84
     K14V37T 2C2017 09 22.50075803 26 21.06 -00 27 07.7          24.3 gWEU141T09
     K14V37T 2C2017 09 22.59191303 26 20.78 -00 27 12.6          24.3 gWEU141T09
     K14V37T 2C2017 09 23.49965203 26 18.03 -00 28 00.8          24.3 gWEU141T09
     K14V37T 2C2017 09 23.59238303 26 17.72 -00 28 05.9          24.3 gWEU141T09
     K14V37T 2C2017 09 26.46916403 26 08.33 -00 30 38.4          24.3 gWEU141T09
     K14V37T 2C2017 09 26.56153903 26 08.00 -00 30 43.3          24.2 gWEU141T09
     K14V37T /C2019 12 01.23823303 39 01.90 -02 20 27.0          24.2 VWEU141W84
     K14V37T /C2019 12 01.24030203 39 01.89 -02 20 27.0          24.2 VWEU141W84
     K14V37T /C2020 02 11.04466803 35 05.91 -02 08 58.7          23.8 iWEU141W84
     K14V37T /C2020 02 11.05877003 35 05.91 -02 08 58.3                WEU141W84
     K14V37T /C2020 11 24.23847403 49 03.46 -02 49 31.1                WEU141W84
     K14V37T /C2020 11 24.23961303 49 03.45 -02 49 30.9          23.7 iWEU141W84

Observer details:
T09 Subaru Telescope, Maunakea.  Observer M. E. Brown.  Measurer K. Ly.
W84 Cerro Tololo-DECam.  Observers S. Sheppard, C. Trujillo, S. S. Sheppard,
    A. Zenteno, A. Diaz, Q. Yang.  Measurers F. Valdes, K. Ly.  4.0-m CTIO
    reflector.

Orbital elements:
2014 VT37                                                                       
Epoch 2023 Sept. 13.0 TT = JDT 2460200.5                Alexandersen            
M  17.10423              (2000.0)            P               Q                  
n   0.00392772     Peri.  200.51566     +0.80596550     -0.56874930             
a  39.7840738      Node   197.41268     +0.59014641     +0.79368870             
e   0.2371488      Incl.   33.26556     +0.04633385     -0.21582976             
P 251              H    9.11          G   0.15           U   4                  
Residuals in seconds of arc
131105 W84  0.1-  0.2-    141119 W84  0.0   0.1+    170923 T09  0.2+  0.0
131105 W84  0.0   0.2-    141126 W84  0.2-  0.1+    170923 T09  0.0   0.2-
131105 W84  0.0   0.1-    141126 W84  0.2-  0.0     170926 T09  0.0   0.1-
141112 W84  0.3+  0.0     141126 W84  0.0   0.1+    170926 T09  0.1-  0.1-
141112 W84  0.1+  0.0     141129 W84  0.2-  0.3+    191201 W84  0.0   0.0
141112 W84  0.2+  0.1+    141129 W84  0.1-  0.2+    191201 W84  0.0   0.1+
141112 W84  0.1+  0.0     150111 W84  0.0   0.0     200211 W84  0.1+  0.0
141119 W84  0.0   0.0     150111 W84  0.1-  0.2+    200211 W84  0.1-  0.1-
141119 W84  0.1+  0.2-    170922 T09  0.1-  0.1+    201124 W84  0.0   0.2-
141119 W84  0.0   0.2-    170922 T09  0.0   0.1+    201124 W84  0.1-  0.1+

Ephemeris:
2014 VT37                a,e,i = 39.78, 0.24, 33                 q = 30.3493
Date    TT    R. A. (2000) Decl.     Delta      r    Elong.  Phase     V
2023 09 20    04 21 44.4 -03 29 42  30.6739 31.0539   111.4     1.7    24.2
...
2023 10 05    04 21 14.0 -03 43 46  30.4824 31.0586   124.4     1.5    24.2
...
2023 10 13    04 20 47.3 -03 51 02  30.3950 31.0611   131.2     1.4    24.2
...
2023 10 19    04 20 23.0 -03 56 17  30.3378 31.0630   136.1     1.3    24.2
2023 10 20    04 20 18.6 -03 57 08  30.3290 31.0634   136.9     1.3    24.2
2023 10 21    04 20 14.1 -03 57 59  30.3204 31.0637   137.7     1.2    24.2
...
2023 10 27    04 19 45.5 -04 02 52  30.2739 31.0656   142.2     1.1    24.1
...
2023 11 04    04 19 03.1 -04 08 54  30.2254 31.0681   147.7     1.0    24.1
...
2023 11 19    04 17 34.1 -04 18 14  30.1799 31.0729   154.2     0.8    24.1

M. P. C. Staff               (C) Copyright 2023 MPC           M.P.E.C. 2023-U141





More information about the Iaude mailing list